Location: La Comballaz
(46.3780°N, 7.0817°E)
Time: 09:48:09
(UTC+00:00)

BREEZE M DEB (TANK) - Pass Details

Date: 09 April 2020
Orbit: 304 x 11878 km, 49.5° (Epoch: 22 May)

Event Time Altitude Azimuth Distance (km) Brightness Sun altitude
Rises 19:18:12 0° 212° (SSW) 2,171 5.5 -11.7°
Reaches altitude 10° 19:19:41 10° 200° (SSW) 1,530 4.5 -11.9°
Maximum altitude 19:22:30 35° 132° (SE) 1,062 3.3 -12.3°
Drops below altitude 10° 19:29:02 10° 68° (ENE) 3,624 6.1 -13.3°
Sets 19:34:46 0° 63° (ENE) 6,070 7.3 -14.2°
